Theta_e
311 311 312 313 314 316 317 317 317 317 317 317 317 317 318 318 319 319 320 320 319 319 319 316 316 315 315 316 318 318 317 306 303 301 299 303 314 319 320 320 319 318 315 307 305 302 300 300 300 302 302 301 298 299 299 300 299 301 294 293 289 290 288 289 288 289 291 290 291 292 294 295 293 295 298 300 300 301 302 301 302 305 304 306 306 306 306 307
312 312 313 314 315 316 317 317 317 317 317 317 317 317 318 318 318 319 320 320 319 318 318 316 314 316 315 315 316 317 313 304 302 299 299 309 317 319 320 320 318 315 311 304 301 300 299 298 299 302 300 296 302 297 301 296 300 296 293 292 287 288 288 291 290 291 290 291 291 292 294 294 292 294 296 297 296 297 298 298 299 300 302 303 305 304 303 304
313 313 314 314 315 316 316 316 317 317 317 317 316 317 317 319 319 319 320 321 320 318 318 315 314 316 318 316 317 314 309 306 300 296 300 313 317 318 319 319 317 314 305 301 301 300 299 298 300 300 299 296 297 295 298 294 298 294 294 288 287 290 290 292 291 290 291 291 291 291 293 293 293 293 297 294 294 295 292 292 295 296 296 298 301 301 301 302
313 313 314 315 315 316 316 316 316 317 317 317 317 317 317 318 318 319 320 320 320 317 317 317 314 313 313 313 314 307 305 306 293 297 302 314 317 318 318 317 316 311 307 304 302 301 301 302 301 300 297 295 295 297 293 294 295 294 292 288 289 291 290 292 293 292 291 291 292 292 292 292 293 293 293 293 295 292 292 293 293 294 295 297 298 299 299 299
313 313 314 315 315 315 315 316 316 317 317 317 317 317 317 318 318 319 320 320 319 318 317 316 315 316 312 313 312 310 302 295 292 299 303 312 315 316 317 316 315 309 307 304 305 305 304 301 302 299 297 293 295 294 292 294 296 293 289 291 291 292 291 292 293 293 293 292 293 294 292 291 295 293 292 291 289 288 290 293 295 297 296 296 296 297 298 297
313 313 314 314 315 315 315 315 316 316 317 317 317 317 317 318 318 319 319 320 320 319 316 315 314 314 314 312 311 309 302 284 296 298 309 312 314 313 315 313 313 308 309 306 303 302 301 300 300 295 294 293 292 290 293 294 295 288 291 292 293 293 291 292 293 292 294 294 293 292 293 294 293 291 292 291 289 291 294 295 296 297 297 297 297 297 296 295
313 314 314 315 315 316 315 315 315 315 316 316 317 318 318 318 318 319 319 319 319 318 316 315 315 316 312 312 305 301 294 293 298 302 307 311 312 310 313 310 310 306 306 305 304 300 300 298 297 294 293 292 292 292 293 294 296 292 288 292 291 293 291 292 292 293 294 293 291 294 295 292 292 289 292 290 292 293 295 295 296 297 297 297 295 296 295 294
314 314 314 315 315 316 316 316 316 316 315 315 317 318 318 318 318 318 317 319 320 316 316 314 314 313 314 308 304 294 293 291 297 302 306 308 304 304 308 306 306 305 303 301 303 301 300 297 295 296 294 291 292 292 294 293 294 290 289 291 291 293 293 293 293 293 294 293 295 295 292 291 291 290 292 290 291 293 294 295 296 296 296 295 294 294 294 294
314 314 314 315 315 316 316 316 316 317 316 315 316 317 318 319 319 318 318 319 317 317 314 314 314 315 312 305 299 292 290 298 300 301 301 299 301 302 304 302 305 302 301 302 303 304 301 297 297 298 291 291 294 291 291 292 288 292 290 292 292 292 293 294 293 292 292 294 295 293 291 292 292 293 290 291 291 293 294 295 295 295 295 293 293 292 292 292
313 314 314 315 315 316 316 316 318 317 318 317 316 317 317 319 319 318 318 318 317 315 314 310 311 312 309 303 298 288 295 303 303 300 299 299 301 302 301 301 303 302 300 300 301 301 299 298 297 298 297 293 294 290 294 292 288 293 291 292 292 293 293 294 292 292 291 292 294 292 290 291 293 292 288 292 292 293 293 294 294 294 293 293 292 292 291 290
313 313 314 314 315 316 316 316 317 318 318 317 315 316 317 318 319 318 317 317 316 316 313 312 311 310 301 301 292 287 302 303 301 300 300 300 301 299 298 300 302 302 301 300 299 300 300 301 303 301 299 292 295 291 292 290 293 290 291 291 292 293 293 294 293 292 294 291 292 292 291 293 292 291 288 291 293 293 292 293 293 293 293 292 292 291 291 290
313 313 313 314 314 315 316 316 318 318 318 318 316 315 316 316 316 316 316 316 316 315 312 310 310 307 301 296 291 291 304 301 302 300 301 301 300 299 300 300 301 302 300 297 298 300 301 299 301 299 292 298 289 292 290 292 292 290 290 288 289 292 290 292 291 292 293 290 293 292 290 290 289 286 291 292 293 292 292 292 292 292 292 292 292 291 290 290
313 313 313 314 314 314 315 316 316 317 318 316 316 315 315 315 315 315 316 314 315 314 311 308 309 307 301 291 292 300 305 302 302 301 300 300 303 302 302 302 302 301 303 299 297 299 302 303 302 295 297 295 291 289 292 294 290 292 292 290 288 289 288 291 293 293 292 291 293 292 282 287 287 289 291 293 292 292 291 291 292 291 291 290 290 290 290 290
312 313 313 313 313 314 314 314 316 316 317 317 316 316 314 314 313 313 314 312 312 313 311 309 311 305 297 290 298 304 305 305 304 299 298 300 301 303 302 303 305 303 303 302 302 301 303 302 302 298 299 296 291 296 292 292 293 288 287 291 286 287 285 291 291 291 290 293 293 293 283 286 287 289 291 292 293 290 289 290 290 290 289 289 289 288 289 289
312 312 312 312 313 313 313 313 315 315 315 315 316 311 313 313 312 311 312 312 311 313 314 311 307 303 293 292 302 307 308 306 298 297 299 298 298 298 298 301 302 301 300 300 299 302 303 302 302 295 292 294 295 293 290 290 291 290 287 284 287 285 286 289 292 291 287 291 293 290 285 285 288 289 291 292 291 290 287 288 288 288 288 288 288 288 288 288
312 312 312 312 312 312 312 313 313 314 313 312 314 311 311 313 311 311 311 310 309 310 310 307 301 300 294 290 297 310 302 295 294 299 298 300 298 296 298 299 301 304 302 300 300 300 302 301 293 293 294 296 293 291 290 290 289 289 287 284 283 286 285 287 290 292 291 290 292 289 283 286 287 290 290 291 290 290 287 287 287 288 287 287 288 287 287 287
311 312 312 312 312 312 311 312 312 312 311 310 313 314 309 311 309 310 308 306 304 308 306 298 302 299 289 297 304 297 293 297 299 299 298 298 298 298 299 298 297 299 302 301 301 304 298 296 293 295 294 290 290 288 287 285 285 286 288 284 284 283 284 284 289 291 292 290 286 289 286 286 287 289 290 290 290 290 288 288 287 287 287 287 286 286 286 286
311 311 311 311 311 312 312 311 312 312 310 310 312 314 311 311 312 308 306 308 303 302 300 306 297 297 293 302 289 291 297 295 298 296 298 299 297 299 297 294 295 297 299 297 297 294 294 292 294 287 289 288 287 289 285 279 282 282 283 284 284 285 284 284 284 288 290 289 286 287 287 286 287 289 289 289 290 289 288 288 287 286 287 287 286 285 285 285
310 310 310 310 311 312 312 310 311 311 309 309 310 308 309 310 307 303 300 301 302 297 293 291 291 286 282 290 296 296 296 297 297 297 295 296 298 298 299 299 297 296 292 291 289 292 292 290 290 287 282 283 283 284 284 284 285 284 284 283 283 282 284 284 286 289 289 286 286 285 284 285 287 287 288 289 290 287 287 288 288 287 286 286 286 286 285 286
310 310 310 310 310 312 312 310 309 310 307 305 304 305 305 301 301 296 297 297 292 292 292 294 293 294 295 294 293 296 300 298 295 296 296 297 298 298 297 296 296 294 290 286 288 288 291 284 280 280 281 282 284 283 283 285 285 286 285 284 283 284 285 287 287 289 290 287 286 285 285 286 286 287 288 288 289 288 287 286 286 287 285 285 285 285 285 285
309 309 309 309 310 311 311 309 308 307 304 304 308 304 297 293 295 288 291 292 293 294 294 292 293 291 292 294 295 294 292 295 296 294 295 298 296 296 291 294 292 287 287 285 287 290 291 282 280 282 282 282 282 284 285 285 285 285 285 284 284 285 283 287 286 290 291 286 286 286 285 286 286 287 288 289 288 286 287 286 286 285 287 286 286 286 285 285
309 309 309 309 309 310 311 308 307 307 306 306 303 296 295 294 296 296 297 289 293 294 294 293 293 293 294 294 295 294 293 291 295 293 297 299 296 295 290 292 288 284 288 287 287 287 283 280 282 283 284 284 283 284 283 283 283 284 284 285 284 285 286 288 287 289 289 287 285 287 284 285 286 287 288 288 287 287 288 287 286 285 286 286 286 285 285 285
308 309 309 309 308 309 311 310 306 306 304 304 300 298 297 298 296 295 296 294 290 291 293 293 291 292 293 296 294 295 291 287 286 292 291 296 294 290 290 289 286 287 287 289 285 283 281 282 283 285 283 283 283 283 283 282 284 285 285 284 282 285 283 281 287 288 289 287 284 286 284 285 287 288 288 288 289 288 288 287 287 288 285 286 285 284 284 285
308 309 309 308 307 307 310 308 305 303 298 299 299 297 297 295 296 295 294 289 289 288 294 292 291 291 290 291 293 293 291 288 290 288 295 294 289 288 289 287 286 285 283 286 285 282 280 283 286 283 283 284 281 281 282 285 285 284 284 283 283 282 282 282 283 286 288 289 288 285 284 285 287 285 286 288 290 288 287 286 285 288 288 287 287 286 285 284
308 308 308 306 306 307 308 306 301 296 294 300 298 297 295 295 296 295 293 287 291 290 293 294 290 292 293 295 297 292 289 290 289 290 294 292 289 291 287 285 287 283 285 283 286 285 282 284 284 282 282 283 282 281 278 280 284 283 282 282 281 281 281 283 284 284 283 283 283 282 278 280 284 284 285 287 288 287 288 286 286 287 287 286 285 286 285 286
308 308 307 305 306 306 306 299 296 296 298 296 297 297 295 295 296 297 293 284 283 287 295 288 296 290 296 293 293 287 289 288 289 291 294 291 291 289 288 286 286 284 283 284 282 283 283 284 283 281 281 283 282 280 280 280 282 282 281 281 283 283 282 282 282 283 280 277 282 282 276 276 283 281 284 285 286 286 288 287 286 287 287 286 286 286 285 285
308 307 306 304 306 303 300 294 293 295 297 295 298 296 294 297 296 297 292 285 282 285 286 293 293 291 296 292 290 291 286 287 294 292 291 293 289 291 288 283 286 283 279 277 284 281 284 284 283 281 282 283 283 282 281 280 281 283 283 284 283 282 282 283 281 283 282 282 281 280 281 276 278 282 285 285 285 285 286 287 288 288 288 287 286 285 286 286
308 307 306 304 303 303 297 295 296 296 293 296 296 294 293 294 297 295 292 274 273 291 285 291 292 300 295 291 294 290 286 289 288 290 292 292 291 291 290 284 284 283 282 282 282 281 281 284 283 281 282 282 280 280 282 282 281 283 283 286 283 282 283 281 283 283 281 278 279 280 279 276 279 281 284 285 282 283 284 286 287 288 288 288 286 286 285 286
307 307 306 304 303 301 300 298 297 294 296 296 294 293 293 296 292 292 285 276 279 285 298 288 297 294 290 295 290 288 288 289 286 290 293 293 293 288 287 284 285 284 284 284 284 283 282 282 282 283 282 280 282 283 283 282 281 284 283 285 283 282 282 283 284 283 281 278 276 277 278 275 277 282 283 284 283 283 284 286 287 288 288 288 287 286 286 286
307 306 306 304 302 302 297 297 295 295 296 294 293 293 295 293 294 286 277 269 283 279 288 290 291 285 288 288 286 288 287 286 286 288 290 287 290 291 284 284 286 285 285 287 285 283 282 284 286 283 282 283 282 284 283 282 283 285 284 282 284 283 282 281 282 281 280 275 278 277 279 276 274 280 283 281 281 285 287 286 287 288 289 289 289 288 287 285
306 305 305 304 299 295 295 295 294 292 292 293 295 296 294 294 287 278 266 277 285 283 288 286 284 288 283 283 284 287 286 286 286 288 287 290 288 288 288 285 290 283 284 286 284 283 283 284 285 285 286 285 283 282 282 282 282 283 284 283 282 282 280 280 279 277 274 275 278 279 277 278 273 279 285 287 287 287 287 285 285 286 288 289 289 289 288 287
305 305 304 302 298 295 295 294 295 293 293 293 295 293 293 286 287 279 274 290 278 282 280 283 285 282 283 282 281 282 282 286 285 285 282 282 282 281 280 280 277 282 282 280 281 283 282 282 282 284 285 282 283 282 283 282 284 284 283 282 278 277 277 275 277 274 275 275 278 278 278 275 277 282 285 287 288 287 288 287 286 286 287 289 289 290 289 289
303 305 303 301 301 299 297 294 293 294 293 295 295 295 289 281 271 276 275 276 277 279 280 283 283 281 279 280 282 281 282 282 284 284 282 282 283 280 281 281 279 280 278 281 280 281 282 280 283 283 283 284 284 281 281 281 282 281 280 278 277 274 272 270 273 273 275 278 276 277 277 275 281 283 286 286 288 289 288 288 288 288 288 289 290 290 290 290
303 302 299 297 297 295 296 294 292 293 294 295 293 292 286 280 273 281 272 278 276 279 281 280 281 280 278 283 281 279 282 282 281 283 284 281 282 281 283 283 282 280 282 281 279 277 279 280 281 282 280 283 284 282 281 279 281 280 280 279 278 277 273 270 272 271 272 273 276 276 273 275 277 281 284 285 285 286 287 288 289 290 291 291 291 291 291 290
301 299 298 297 297 295 294 293 295 295 295 294 291 289 278 274 275 276 278 276 278 279 280 278 279 280 281 279 279 280 280 282 281 281 282 283 280 280 279 280 281 281 279 280 278 277 278 279 282 282 282 283 281 283 282 280 279 280 280 282 280 276 279 274 274 273 271 271 273 275 276 279 281 284 285 285 286 286 287 287 287 288 289 289 288 289 289 289
303 299 299 298 297 295 292 293 294 295 295 295 289 282 281 278 278 276 281 283 281 280 281 279 281 281 281 282 278 279 282 280 283 281 280 281 279 280 279 280 280 279 280 280 278 279 280 280 280 282 282 282 282 282 281 282 277 280 281 278 277 280 279 275 271 268 270 270 272 278 278 281 285 283 283 284 284 286 285 286 286 287 289 289 288 289 289 289
299 299 297 296 296 294 293 294 294 295 295 294 288 280 278 273 276 280 285 283 282 282 280 281 279 279 277 280 281 280 281 280 280 281 281 279 280 279 279 279 280 280 279 281 279 280 278 280 282 281 280 280 281 281 282 282 281 281 279 279 280 280 279 276 273 272 272 270 274 274 275 277 279 279 284 283 283 285 286 286 286 287 288 288 289 289 290 290
298 297 296 293 294 294 295 294 294 295 295 292 282 282 272 277 279 282 282 282 282 281 282 282 278 278 276 278 282 280 282 281 282 279 278 279 279 282 279 279 279 280 280 280 280 279 280 278 281 278 280 281 282 282 282 283 283 281 279 281 277 274 274 276 273 269 269 270 272 275 275 277 279 280 282 282 283 284 285 286 285 286 287 288 289 290 290 290
294 295 296 293 295 293 294 293 296 295 296 286 280 284 276 277 280 281 282 282 282 282 282 280 280 275 278 279 280 278 278 282 279 280 278 278 279 281 280 280 278 279 280 280 280 280 280 277 280 279 280 280 281 281 279 280 282 281 282 280 278 279 275 274 274 274 273 270 270 274 274 278 281 282 282 283 283 285 286 286 286 287 288 288 289 290 290 290
295 297 294 292 295 295 294 295 295 291 291 286 281 278 274 276 279 281 279 281 282 282 282 280 277 279 275 276 278 281 279 278 280 280 278 279 279 283 281 280 279 279 280 280 280 280 280 280 276 281 279 280 280 281 280 281 279 280 280 279 278 277 276 277 274 273 273 270 270 269 270 279 284 284 283 284 284 285 285 287 288 289 289 290 290 290 291 291
289 295 292 292 294 294 295 292 284 280 280 275 276 273 271 277 279 281 280 279 283 283 282 281 280 281 278 278 278 277 279 278 279 280 279 279 279 281 282 282 280 279 280 279 280 280 278 278 276 280 280 282 281 280 280 280 280 280 280 279 280 278 276 273 273 269 269 271 268 269 270 278 285 283 284 284 285 285 286 286 287 288 288 289 289 290 290 290
295 290 293 292 292 293 295 289 277 272 282 281 281 279 281 284 279 282 281 280 280 283 282 281 279 278 277 277 278 277 278 278 278 278 279 280 281 281 281 280 280 282 280 279 280 280 280 279 277 275 279 281 279 279 279 279 279 278 279 279 279 278 278 275 270 272 270 271 268 271 268 275 285 283 283 283 283 284 285 285 286 288 288 289 289 289 290 290
294 291 292 291 292 292 293 283 282 281 279 278 279 281 281 281 280 280 281 281 281 281 282 281 281 279 277 277 275 276 277 279 279 281 279 279 278 281 280 279 281 281 282 280 280 280 280 277 276 278 282 279 278 279 279 279 279 278 278 278 278 278 278 277 277 276 273 271 271 270 268 276 285 284 283 283 284 284 284 284 286 288 289 289 289 289 289 289
291 293 298 294 291 293 298 286 283 278 277 277 278 280 282 280 280 279 279 280 281 281 282 281 281 281 278 277 278 276 277 277 280 279 280 278 281 280 279 279 279 281 280 280 279 283 277 279 276 275 277 278 277 277 277 275 278 279 280 279 279 277 276 275 275 275 272 273 274 273 270 278 283 283 284 283 283 284 285 286 285 286 288 289 289 289 289 289
290 290 289 292 293 295 291 285 285 280 280 278 275 278 279 280 281 281 281 281 283 282 282 281 281 281 276 274 270 270 270 275 276 278 277 278 281 280 279 278 280 281 281 283 283 283 279 279 277 274 272 272 274 275 278 278 279 279 279 278 277 277 276 275 273 272 270 273 273 272 274 282 285 284 284 283 283 285 287 286 285 286 286 286 287 288 288 288
294 288 290 291 290 288 283 283 284 283 278 276 278 279 279 280 281 280 280 281 282 281 281 282 281 282 278 277 274 268 270 272 274 275 276 279 279 278 278 278 279 281 282 284 282 282 276 274 275 279 278 277 280 282 280 279 278 276 278 277 277 277 279 278 278 273 271 274 271 275 277 280 282 284 285 286 286 285 285 286 286 286 286 286 286 286 287 287
290 290 286 288 291 287 283 284 282 284 284 284 283 279 278 279 280 280 279 278 282 281 280 282 280 280 278 280 276 272 267 269 270 269 275 278 280 279 278 279 278 280 283 283 281 279 275 275 276 275 278 280 282 281 279 277 275 277 276 277 278 277 277 275 273 273 278 275 271 277 279 277 279 282 284 284 285 286 286 286 286 286 286 286 286 286 286 286
290 285 284 282 284 286 288 286 283 281 281 283 282 279 280 279 279 280 279 281 280 280 279 279 281 282 282 281 279 278 271 269 265 274 276 276 277 278 278 277 279 280 284 280 282 279 276 274 276 275 275 277 278 278 278 277 276 276 276 277 277 278 276 273 274 277 277 274 273 279 278 277 280 282 284 285 286 285 286 286 286 286 285 285 285 285 285 286
287 284 284 282 287 281 282 282 282 284 283 283 282 280 278 279 281 281 281 279 279 280 281 279 280 282 282 281 280 280 274 276 278 272 271 276 277 278 279 278 278 281 283 279 278 274 276 274 275 274 273 274 276 277 278 276 276 276 275 276 277 277 276 276 276 277 277 276 278 278 279 279 281 282 284 285 287 286 286 286 285 285 285 286 285 285 285 286
287 287 286 283 283 280 282 282 282 284 285 283 284 281 283 281 281 279 279 280 278 279 281 279 282 280 282 280 281 281 281 283 283 280 279 276 276 276 278 281 278 279 282 278 277 274 276 276 276 272 272 274 278 278 274 274 274 273 275 276 276 276 276 277 276 277 277 277 277 277 277 277 282 285 285 286 286 286 285 284 285 286 286 285 285 285 285 286
287 285 287 287 286 282 282 281 284 284 285 283 284 281 281 280 282 282 282 283 284 281 278 282 283 279 280 280 280 281 285 282 283 284 282 279 280 282 280 280 283 277 278 277 277 275 276 275 273 271 272 273 273 273 275 276 274 273 273 276 276 275 273 275 274 276 275 274 276 276 274 275 281 285 285 285 284 284 283 285 285 286 287 286 285 285 286 287
286 285 286 289 286 286 284 280 280 284 285 286 285 283 284 284 282 282 283 282 281 283 284 284 281 283 278 279 280 282 286 285 285 286 285 285 285 283 283 282 283 281 278 278 278 276 275 275 273 273 271 273 273 272 273 273 273 274 278 281 281 278 278 278 277 278 278 279 276 274 275 281 284 286 283 284 285 285 284 285 285 286 287 286 286 285 286 287
Wind_Speed
14 14 13 13 14 14 14 14 14 14 13 13 13 13 13 13 14 14 14 15 15 15 15 15 13 13 9 9 7 7 7 8 25 27 32 18 21 24 24 24 24 23 22 10 14 8 10 11 12 6 7 10 7 5 6 10 8 3 5 5 8 5 7 5 5 5 4 5 7 9 11 11 11 15 9 7 8 9 3 8 10 7 12 13 12 14 15 15
14 14 14 14 14 14 14 14 14 14 13 13 13 13 13 14 14 14 14 14 15 15 15 15 14 10 7 3 2 5 4 9 19 29 23 22 26 25 25 24 23 21 17 9 12 12 10 11 10 10 9 9 7 7 6 6 9 8 5 7 8 5 4 5 6 5 5 4 6 4 8 11 12 11 10 6 11 15 12 13 14 15 16 17 16 18 17 17
14 14 14 14 14 14 14 14 14 14 14 13 14 14 14 14 14 14 14 14 14 15 15 15 15 10 9 4 4 4 3 7 24 25 20 29 28 25 25 24 23 18 9 6 4 7 10 4 7 10 10 12 10 7 11 7 6 11 4 9 8 5 5 8 6 5 4 6 5 2 4 11 13 12 10 6 4 15 15 14 18 17 19 21 19 19 17 16
14 14 14 13 13 13 13 13 13 13 13 13 13 13 13 14 14 14 15 14 15 15 15 13 14 15 8 5 1 3 2 5 21 14 18 28 27 25 23 23 23 16 5 1 3 2 1 2 11 10 11 15 9 10 14 11 3 7 8 7 6 2 4 9 8 6 4 2 4 4 0 6 11 12 13 14 4 10 10 11 12 16 17 17 17 16 16 16
14 14 14 13 13 13 13 13 13 13 13 13 12 12 12 13 13 13 13 15 15 16 15 12 10 12 16 3 3 1 5 7 10 15 20 27 25 24 22 21 22 15 8 1 3 3 1 6 4 13 11 9 7 10 10 12 10 9 11 8 5 3 9 7 8 8 5 1 2 7 7 8 2 12 16 16 11 7 10 12 11 11 12 14 15 15 14 15
15 14 14 13 13 13 13 13 13 13 12 12 12 11 11 11 12 12 13 13 14 15 15 12 9 9 10 18 4 4 4 8 8 14 23 24 22 22 20 18 20 13 8 11 9 11 12 9 9 10 8 12 13 13 8 5 4 10 10 10 10 8 9 5 8 7 6 6 7 6 5 1 8 8 11 13 12 8 9 10 10 9 10 10 10 12 14 16
15 15 14 14 13 12 12 12 12 12 12 12 12 12 11 11 11 11 12 13 13 13 14 11 10 7 3 5 13 27 18 8 6 14 21 20 19 17 18 12 15 14 14 17 14 12 10 14 17 9 14 17 14 14 13 14 14 14 9 8 10 8 8 4 5 5 9 10 8 4 5 8 5 9 9 13 10 9 9 9 9 8 8 9 11 12 13 13
15 15 14 14 13 12 12 11 11 11 12 13 12 12 11 11 10 11 13 13 13 15 14 13 9 8 4 3 1 15 16 9 14 15 20 19 14 13 16 6 15 10 20 16 11 8 5 16 13 8 13 11 3 10 5 16 12 12 10 7 6 8 8 5 4 5 6 7 5 8 12 8 5 7 9 13 11 11 10 9 8 8 8 9 12 13 13 14
15 14 14 14 13 13 12 11 11 11 11 12 12 12 11 10 10 11 13 13 14 14 17 17 12 7 4 2 9 16 14 9 9 14 16 16 12 10 11 14 16 17 13 17 15 11 5 6 7 6 6 9 3 6 4 2 10 9 12 9 9 9 10 8 6 5 5 4 6 9 10 9 3 1 11 11 11 10 9 8 9 8 9 11 11 12 13 13
15 14 14 13 13 12 11 11 10 10 10 10 11 11 10 10 10 10 11 12 12 13 14 16 15 9 7 6 9 21 6 5 8 12 14 14 11 11 16 15 15 14 17 12 13 14 12 7 14 11 13 14 7 7 7 11 9 6 9 8 9 10 11 11 10 7 2 6 7 7 10 10 8 1 2 12 11 10 9 9 8 9 9 10 10 10 12 13
15 14 14 13 13 12 12 12 11 10 11 10 12 11 10 10 10 11 10 11 10 11 10 9 7 6 15 9 19 16 3 5 10 11 12 13 10 14 13 12 12 13 11 13 16 10 4 2 2 1 4 5 8 13 11 4 4 1 2 4 7 4 15 14 12 12 5 1 7 3 6 11 8 7 9 10 10 10 9 8 9 9 9 9 10 10 10 11
15 15 15 14 14 14 13 13 13 12 13 12 12 12 9 9 11 10 9 9 11 10 9 6 8 4 9 17 20 8 3 4 7 11 8 12 11 5 4 6 9 10 12 13 12 10 7 2 2 1 5 5 8 5 9 1 2 3 2 2 5 8 13 16 14 13 6 7 10 2 7 4 11 9 9 9 9 9 7 7 8 9 9 10 9 9 9 10
16 16 15 15 15 15 15 15 15 14 13 13 11 12 9 8 9 9 10 8 8 7 8 9 6 6 5 19 8 2 2 5 5 12 15 14 10 3 1 5 6 9 8 9 8 7 6 5 6 15 3 3 3 4 4 2 1 0 8 3 1 2 8 14 10 14 6 9 10 3 5 5 8 8 8 8 8 8 7 8 8 7 8 8 9 8 8 10
16 16 16 16 16 16 16 15 15 15 15 12 11 10 10 8 9 10 9 9 9 4 6 10 5 5 9 9 3 2 4 3 7 16 16 13 13 5 5 8 4 5 8 7 4 7 6 3 10 13 5 6 6 4 4 3 3 1 2 2 5 4 5 8 11 15 9 8 12 4 7 3 5 7 7 7 8 7 7 7 8 7 7 7 7 8 8 9
16 16 16 16 16 15 15 15 15 15 15 14 11 14 10 10 9 8 8 7 12 5 1 2 7 1 9 5 4 1 6 6 14 13 10 13 12 8 14 11 7 6 2 9 4 5 7 6 2 10 6 3 0 4 4 5 5 2 3 5 4 6 5 4 9 12 12 7 13 8 4 4 5 6 7 7 7 7 6 7 7 7 7 7 7 8 8 8
16 16 16 15 15 15 15 15 14 14 13 13 11 15 13 9 7 7 8 4 7 4 2 6 8 5 11 9 5 3 4 15 15 10 6 6 8 7 10 7 4 5 5 5 3 1 5 6 16 4 5 2 5 3 3 3 5 7 6 3 5 4 6 1 7 7 10 8 6 11 5 3 2 6 6 6 7 6 4 5 7 7 8 8 7 7 8 8
16 16 16 15 15 14 14 14 15 14 13 11 8 4 18 14 8 6 6 8 5 5 6 5 2 2 8 2 3 7 7 5 4 6 9 4 6 6 8 7 5 8 4 1 11 3 11 7 1 3 8 8 5 1 3 8 8 8 5 4 2 5 6 3 5 4 8 9 8 8 5 4 5 6 6 6 7 6 6 6 7 7 6 7 7 8 8 8
17 17 16 15 15 14 14 15 14 13 13 9 3 3 2 8 11 7 5 3 2 5 4 5 3 3 9 5 8 10 8 5 9 8 6 6 2 8 9 9 5 3 3 4 11 12 7 5 6 6 4 10 12 9 8 6 6 7 8 5 3 3 1 6 7 8 8 7 6 6 2 3 4 4 5 6 6 6 7 8 8 8 7 7 6 7 8 8
17 17 16 16 15 14 14 15 15 12 11 4 2 1 2 2 5 12 13 8 5 5 5 12 11 8 2 10 6 6 6 4 5 6 14 11 6 1 1 2 4 5 2 6 8 7 6 5 1 3 13 13 13 9 8 5 3 3 5 4 4 6 5 6 6 6 7 8 5 5 5 5 4 4 4 4 5 5 6 8 6 8 8 7 7 7 8 8
17 16 16 16 15 13 13 15 15 9 7 3 2 1 1 0 3 5 8 11 13 7 5 2 1 1 2 5 10 11 6 3 4 12 11 5 6 5 6 5 1 11 7 5 3 8 6 12 10 8 6 8 7 6 2 2 3 2 2 4 4 6 4 2 3 6 5 8 3 4 4 4 3 3 3 3 3 3 4 6 8 6 6 6 6 6 7 8
17 17 16 16 14 12 12 15 14 9 6 5 4 3 1 2 2 4 4 8 2 3 4 2 3 1 2 4 5 9 6 2 3 12 11 10 3 3 12 7 9 12 8 3 2 1 2 12 8 6 4 4 4 2 1 1 1 2 3 4 5 5 6 5 4 7 5 6 8 5 8 7 4 2 2 2 2 2 4 5 7 10 7 5 6 7 7 7
17 17 17 16 15 11 10 11 15 8 8 6 8 7 3 1 3 4 0 6 4 3 1 2 3 2 2 3 1 2 4 5 4 16 9 13 10 2 5 9 11 11 7 1 3 1 11 9 6 5 3 2 0 2 1 1 1 1 3 4 5 4 9 7 4 5 3 6 8 10 10 8 4 2 1 2 2 2 4 4 5 8 8 6 6 6 7 7
16 16 17 16 15 12 9 8 10 13 5 6 6 5 3 2 4 2 3 8 5 1 2 2 4 5 4 3 1 4 3 13 5 12 15 11 4 10 3 6 9 6 10 9 5 3 7 8 6 3 2 4 4 3 3 3 2 2 2 2 4 5 7 4 2 6 8 7 9 11 13 8 4 4 3 1 2 0 2 3 5 6 8 8 7 7 7 7
15 15 16 15 14 12 8 6 3 10 9 7 9 5 2 2 1 2 1 3 4 1 2 1 1 1 3 6 5 6 5 3 2 14 11 7 6 3 2 5 6 4 8 8 13 12 7 3 3 3 2 5 4 5 4 2 1 2 1 1 3 5 3 3 7 10 12 7 5 11 11 5 4 6 4 4 3 2 2 4 6 7 5 6 6 5 6 7
14 14 14 13 13 8 4 3 6 3 3 2 6 3 2 2 2 3 1 2 1 3 2 2 1 2 4 2 2 2 2 3 4 3 4 6 5 1 4 2 2 3 2 3 1 10 6 2 1 2 0 1 3 3 5 3 0 1 2 1 3 3 7 7 7 9 6 1 5 10 8 1 3 6 5 2 4 3 4 1 6 6 6 5 4 5 5 4
13 14 13 14 13 4 4 2 2 0 1 5 2 3 3 2 2 2 1 2 2 5 2 5 3 4 3 3 6 3 3 3 2 3 3 5 2 2 3 2 4 2 1 0 5 4 3 1 2 2 1 2 5 4 0 3 1 2 1 2 3 4 4 4 6 5 5 6 4 3 4 7 1 4 5 4 4 4 5 4 4 4 3 5 4 4 4 5
13 13 12 14 15 2 1 2 1 2 2 2 2 4 2 2 2 2 1 1 2 3 5 2 1 3 0 3 4 4 0 5 2 2 4 4 4 2 2 2 2 2 1 0 1 3 0 0 1 1 2 3 2 5 2 3 3 1 3 0 2 3 3 3 2 1 5 2 5 1 2 6 7 1 4 5 5 5 6 6 5 5 4 4 4 4 5 5
13 13 10 12 16 11 5 6 2 3 2 1 1 2 2 1 1 1 0 2 1 3 4 4 2 3 5 7 10 7 3 8 2 3 4 5 3 1 2 3 4 5 1 1 3 1 3 4 7 7 3 2 3 2 2 2 2 2 1 1 4 4 4 3 3 3 2 4 2 2 1 4 4 2 3 4 6 7 8 7 7 7 4 4 4 4 3 3
13 13 8 7 13 13 6 4 4 4 2 0 0 2 0 2 1 0 1 1 1 2 4 0 3 2 8 5 6 4 2 6 4 6 9 2 6 3 3 2 1 0 1 3 3 2 1 3 2 3 5 3 5 4 3 3 2 2 3 1 2 2 2 3 3 5 2 3 2 2 3 3 7 1 3 4 6 9 9 9 8 7 7 6 6 5 4 3
12 15 12 0 2 2 3 3 5 1 2 2 2 2 2 1 1 0 1 2 0 1 4 4 4 8 7 3 1 8 8 5 2 7 4 4 8 6 5 3 1 3 2 6 8 4 1 1 2 2 5 5 5 5 2 5 7 7 6 7 6 5 2 0 1 2 4 2 1 3 1 3 5 0 1 4 3 7 5 6 6 7 7 8 8 6 4 3
11 14 15 7 3 1 1 3 2 1 2 3 2 2 2 1 1 3 2 0 2 1 2 4 3 2 8 10 4 8 1 4 8 9 4 2 8 4 3 3 2 1 1 2 4 3 1 1 1 2 1 3 1 3 3 3 4 3 4 5 7 5 2 2 1 1 2 2 5 2 2 2 4 2 2 5 1 4 7 9 10 10 10 9 7 6 6 5
8 11 15 9 1 1 4 3 2 1 2 2 4 1 1 2 3 4 2 5 1 3 2 3 2 2 5 2 2 8 6 5 5 8 7 4 5 11 9 5 6 2 1 6 4 1 2 3 3 2 3 3 3 5 4 2 4 3 4 4 4 3 2 1 1 2 1 4 3 3 4 3 8 8 5 2 6 5 7 7 9 10 9 8 8 8 6 5
6 5 11 8 2 3 4 2 2 1 1 2 1 1 1 3 2 1 2 3 0 2 1 2 3 4 5 1 4 6 2 4 7 3 1 1 1 5 4 9 3 1 3 3 4 6 2 3 3 0 1 2 5 6 5 1 5 8 5 5 5 6 3 3 3 3 3 2 3 1 1 4 5 4 2 5 4 4 5 5 5 7 8 8 7 7 7 6
8 3 4 2 5 3 2 3 2 2 2 1 2 1 4 6 1 3 2 1 0 1 2 1 3 1 5 4 3 6 0 2 4 5 3 1 2 3 2 8 10 3 1 2 5 4 4 0 3 4 2 4 4 5 2 3 5 4 2 3 3 2 3 5 3 6 7 7 7 1 2 1 6 3 1 1 3 2 2 1 2 1 2 5 6 7 7 8
4 7 4 2 1 3 4 3 3 2 2 2 3 3 5 1 1 2 1 1 1 1 1 1 1 1 1 1 2 2 2 1 4 3 6 3 2 1 4 6 7 4 3 1 3 1 1 6 3 1 2 3 2 1 1 2 3 1 1 4 2 2 3 4 3 3 5 6 7 2 2 2 4 4 2 1 0 1 2 3 3 5 4 3 4 6 8 9
1 1 1 3 4 4 5 3 3 1 1 2 4 5 3 1 0 2 1 1 2 0 2 1 1 0 1 1 0 2 2 1 3 2 2 3 1 1 1 1 4 7 4 3 3 3 2 1 1 1 2 3 3 2 0 4 3 1 2 2 1 2 2 1 3 2 3 3 6 2 7 3 6 2 3 2 2 4 3 5 6 7 6 5 7 8 9 9
1 2 1 4 3 4 4 3 3 1 1 3 3 2 0 1 2 1 2 1 1 1 1 1 2 2 2 1 1 4 0 2 1 2 2 1 1 1 1 2 0 1 2 3 2 1 1 8 3 1 3 2 2 2 3 3 1 3 1 3 3 1 1 1 5 1 2 3 3 1 4 9 5 1 2 3 6 7 7 7 7 7 6 8 9 9 9 9
1 2 1 1 4 5 3 3 3 2 3 5 5 4 1 1 1 1 2 1 2 0 0 1 0 2 2 1 1 3 6 2 4 3 0 1 1 2 2 1 3 1 3 2 2 1 2 4 2 1 1 2 1 2 2 2 2 3 3 3 3 1 1 1 1 3 4 4 6 4 6 8 6 2 1 2 5 6 9 8 6 9 9 11 10 11 10 9
2 1 1 2 3 3 3 3 2 1 0 7 0 2 1 1 1 1 1 2 2 2 1 0 0 1 1 1 2 1 4 2 4 1 1 1 1 4 2 1 2 2 0 2 0 2 2 2 1 3 1 2 0 1 2 2 3 3 2 1 1 2 0 3 1 2 1 6 4 4 3 7 5 2 2 2 1 1 4 7 11 12 12 10 10 10 9 9
0 1 2 2 3 3 5 1 3 6 5 3 1 1 1 1 1 1 2 2 1 1 1 1 1 1 1 1 2 1 1 1 1 1 1 1 3 4 3 2 1 3 1 1 1 3 1 0 4 2 3 2 1 0 1 1 2 2 2 1 2 1 1 0 1 2 2 3 2 4 10 5 1 2 3 5 2 2 2 4 6 7 8 9 8 8 7 8
1 1 0 3 5 3 3 8 13 8 5 0 4 2 1 1 1 0 2 3 1 0 1 0 2 0 2 1 1 1 0 0 1 1 0 1 2 1 3 4 3 2 2 1 1 1 1 2 4 7 5 2 2 3 1 2 1 3 3 2 1 2 2 3 3 3 1 2 1 2 10 12 7 3 3 5 2 2 2 4 5 4 5 6 7 8 8 8
0 1 1 3 5 2 1 6 5 1 2 2 1 0 2 2 2 1 1 1 2 1 2 3 3 2 1 1 1 2 1 1 1 1 3 2 4 2 3 1 3 1 1 1 1 1 2 1 2 6 4 8 2 2 0 2 1 1 3 1 1 1 1 1 5 0 1 2 2 0 3 8 2 0 1 3 3 3 3 4 5 5 5 6 6 7 8 9
3 0 1 3 4 2 9 6 1 3 4 1 3 1 2 2 1 1 1 1 0 2 1 2 1 1 1 1 1 0 2 2 3 0 1 1 3 3 2 3 4 4 1 1 2 1 1 1 3 5 5 1 3 3 3 2 1 2 2 1 2 2 3 4 4 2 4 2 2 2 5 8 1 2 0 2 2 3 3 4 6 6 5 5 6 6 7 7
1 1 2 1 0 1 2 0 2 1 1 1 2 2 1 1 1 1 0 1 0 0 1 1 2 3 2 2 1 1 1 1 1 2 2 1 3 4 1 3 3 2 3 2 2 4 2 1 1 7 5 1 1 2 1 1 1 2 2 5 5 3 3 2 4 1 3 8 7 3 9 4 2 2 3 2 2 3 3 4 5 6 6 6 6 6 5 6
2 1 1 3 5 2 2 1 5 5 2 3 3 3 2 1 1 1 1 1 0 0 1 1 2 2 3 1 3 1 3 1 2 2 2 2 3 2 2 3 2 0 1 1 1 3 3 1 1 4 7 9 9 8 6 3 2 2 2 3 6 8 7 2 3 3 5 1 9 6 10 12 3 5 4 5 4 6 7 3 4 6 7 9 9 9 8 7
0 1 3 3 5 6 5 2 3 6 7 5 3 1 2 2 2 1 2 2 0 2 1 3 2 2 4 2 2 3 1 2 2 2 3 2 3 0 1 3 3 1 1 1 2 1 1 1 3 4 6 9 9 9 5 2 4 6 5 9 8 9 9 9 5 5 11 4 7 15 13 17 21 19 15 13 7 8 12 11 10 9 8 7 8 9 9 9
0 1 1 0 2 5 3 1 2 2 3 6 1 4 2 2 2 1 1 0 2 1 1 1 3 3 2 2 3 1 1 3 1 0 6 4 2 1 2 2 3 2 4 3 1 1 1 3 7 8 12 15 15 15 3 1 12 13 13 14 10 11 11 11 10 11 4 2 15 12 15 16 21 18 15 14 13 11 8 9 11 10 9 8 8 9 11 10
0 0 1 0 0 0 0 2 2 4 4 0 1 1 3 3 2 2 0 1 0 1 0 1 2 5 6 4 5 2 1 2 2 3 2 4 3 1 3 4 4 3 5 1 1 2 1 3 1 4 9 12 13 14 12 11 12 14 14 14 13 12 13 15 18 19 9 9 17 3 2 8 16 16 17 17 16 13 12 13 11 11 11 10 8 9 9 9
2 2 1 2 0 0 2 1 2 4 5 2 2 2 3 3 3 2 2 2 1 1 3 2 4 9 8 4 3 1 4 1 3 3 3 2 4 1 2 4 5 3 6 2 1 0 1 5 2 2 10 11 13 13 11 11 12 13 16 16 14 14 17 19 21 18 19 20 21 21 22 23 21 21 21 20 15 10 11 12 10 9 9 8 7 8 9 9
2 2 1 2 4 2 1 1 1 0 2 2 1 3 4 8 4 2 1 3 2 1 1 2 4 3 7 7 6 3 7 8 5 4 3 4 1 3 3 3 5 4 5 3 2 1 1 2 5 1 3 11 11 6 3 7 9 16 19 17 17 16 17 18 16 18 18 20 24 26 25 23 22 19 17 16 11 9 9 10 10 10 8 7 7 9 9 9
1 1 2 5 2 1 1 1 0 0 0 0 1 2 2 4 4 7 4 4 2 5 6 6 2 4 1 5 7 12 6 6 4 6 4 6 6 3 2 1 6 7 8 3 3 1 2 2 4 1 5 8 1 3 6 9 11 15 21 21 14 15 12 13 13 14 15 18 16 12 12 15 18 13 6 9 9 8 9 9 8 8 8 6 7 9 10 10
1 1 1 1 2 1 0 1 0 0 1 2 2 5 4 7 3 5 1 1 0 1 7 6 6 2 1 3 11 13 9 6 9 6 4 5 3 2 3 1 4 6 7 6 3 3 4 2 0 1 6 10 2 3 7 12 14 14 9 8 7 13 12 7 10 9 15 15 9 8 12 14 13 3 8 12 8 8 8 8 7 9 9 7 8 8 9 10
Wind_Direction
36 37 34 32 26 24 22 22 22 23 23 20 16 14 11 9 8 6 3 5 9 6 358 355 351 333 325 313 296 279 307 342 35 37 38 9 347 340 340 338 347 345 337 328 10 20 44 33 30 2 68 47 351 20 344 26 353 332 48 89 73 63 64 21 0 360 335 295 5 12 10 16 13 344 354 311 9 14 73 42 27 39 30 10 1 356 350 348
30 32 34 27 23 23 21 22 25 24 21 19 15 12 9 7 4 4 3 4 9 10 2 360 4 358 339 350 358 354 313 353 34 40 31 352 346 345 342 344 349 353 343 18 16 11 41 30 20 37 60 58 343 45 343 49 355 44 74 61 85 45 54 353 338 320 307 351 354 21 25 32 22 339 343 345 24 19 12 359 359 357 357 359 358 354 353 353
27 27 26 25 23 22 23 24 24 24 21 16 14 11 7 4 2 0 1 4 8 12 9 8 21 28 33 34 68 30 330 271 32 20 359 351 344 345 343 345 351 357 8 13 352 21 51 29 334 61 50 75 20 34 45 25 7 23 57 77 70 71 71 30 2 351 327 316 341 12 47 41 23 18 341 354 9 31 30 355 347 357 344 344 347 350 351 353
24 24 24 23 23 23 23 24 23 22 21 17 11 10 7 3 3 0 1 2 6 11 12 8 19 37 32 45 8 11 328 336 46 354 347 345 343 342 342 347 352 352 355 11 28 52 231 311 44 58 72 62 50 43 51 3 41 13 56 62 79 58 65 22 18 15 12 320 24 30 154 23 30 27 25 358 218 27 15 7 346 334 338 338 341 346 351 353
20 20 19 20 21 22 22 22 21 20 19 17 14 10 8 7 3 2 3 5 1 5 8 13 10 9 35 78 90 165 15 20 20 349 342 339 341 343 340 349 351 352 351 338 221 56 71 40 47 58 55 71 48 68 47 44 67 86 60 72 88 103 69 32 34 28 25 16 51 51 49 27 360 29 33 33 41 15 346 342 342 337 337 341 344 347 351 357
17 16 16 15 16 17 17 18 20 20 19 16 14 11 10 10 10 4 4 6 3 356 2 13 22 24 18 38 100 161 175 68 332 330 337 335 336 341 346 347 343 348 340 51 48 40 53 39 73 50 51 61 44 69 43 63 254 91 75 69 67 62 87 46 47 21 24 59 56 52 52 51 57 59 37 39 35 2 349 341 342 339 342 345 352 358 2 1
16 14 12 11 9 11 12 12 14 16 17 14 13 12 11 14 17 15 9 5 7 359 356 24 34 12 22 52 57 66 75 116 331 329 332 333 331 336 347 333 335 15 29 41 23 48 23 67 66 64 88 81 59 72 63 67 69 86 97 83 64 58 70 49 56 21 45 52 52 67 88 51 18 51 28 35 18 5 356 351 349 346 345 355 4 10 11 7
15 12 10 8 5 5 6 6 5 7 12 12 12 12 14 19 21 19 16 14 6 8 11 40 47 23 335 343 347 58 56 19 338 336 331 330 330 344 339 323 356 12 39 36 14 39 346 48 64 59 54 73 70 83 84 76 54 86 91 79 70 60 55 67 57 44 37 49 54 61 52 38 60 67 38 30 9 2 355 354 0 2 7 10 11 10 9 10
15 13 9 7 3 360 360 360 359 358 3 10 12 12 14 17 18 18 19 17 19 11 24 34 41 33 14 231 95 90 37 342 321 325 337 335 329 324 354 22 352 30 43 33 16 9 56 27 54 343 121 90 349 88 339 343 67 59 90 91 81 69 55 50 64 47 34 33 359 56 59 47 63 306 53 25 13 359 350 2 7 8 19 18 14 10 9 7
14 11 9 5 2 359 354 354 351 355 358 5 12 14 14 15 14 16 22 24 25 26 29 35 30 329 48 45 256 69 4 318 332 342 341 340 332 356 23 17 6 19 41 24 31 29 51 45 79 79 97 72 47 46 23 64 101 110 97 84 80 68 53 37 37 34 44 47 12 54 57 48 34 298 35 24 10 356 353 7 12 15 19 18 16 13 10 8
12 11 7 3 0 357 353 351 351 353 359 7 17 16 15 15 14 14 21 27 24 35 38 35 345 320 53 9 59 74 360 322 351 346 336 346 1 21 13 6 3 26 31 39 43 31 45 52 352 19 42 80 77 52 53 59 115 85 145 150 79 102 47 27 30 23 353 57 16 289 81 58 37 42 18 354 1 355 353 4 14 20 21 17 15 18 14 11
11 9 6 2 359 358 354 352 353 356 1 1 8 14 16 21 20 14 19 30 28 29 40 26 28 31 100 63 56 56 288 326 322 346 341 1 7 0 4 10 20 24 27 41 34 24 15 66 165 42 103 229 82 122 68 67 59 69 211 208 52 56 47 23 13 1 347 16 352 228 253 31 34 26 5 352 355 352 353 6 15 19 19 17 14 16 18 13
11 8 6 4 0 359 357 354 353 357 358 1 358 7 18 33 31 18 18 31 22 37 33 21 315 34 275 55 36 219 302 297 323 341 6 2 329 185 91 54 38 35 23 50 36 4 357 12 86 78 45 83 60 57 126 165 93 131 52 356 170 42 52 21 4 1 3 13 359 229 285 63 23 14 1 353 352 352 356 12 13 18 15 13 10 16 16 17
11 8 7 5 3 1 358 356 356 360 357 354 355 356 28 46 38 28 18 27 12 18 42 35 17 25 34 84 148 250 254 281 266 13 3 333 3 356 12 15 49 37 23 56 51 9 24 351 63 94 62 49 105 193 155 84 44 157 303 28 30 331 32 24 17 1 22 15 355 289 284 45 15 2 1 351 352 353 359 6 11 11 12 8 10 12 12 18
11 9 7 6 4 1 0 359 359 4 3 351 347 27 49 53 50 40 25 15 2 344 306 265 26 105 36 92 239 235 270 216 13 3 354 357 360 350 355 335 7 18 10 44 50 24 9 310 52 43 45 337 163 192 100 79 52 31 226 33 37 19 36 40 29 24 9 355 358 317 276 6 341 357 357 355 354 356 358 4 4 6 9 7 8 11 7 10
10 8 6 4 3 2 1 1 360 3 10 353 336 27 47 61 61 48 47 36 355 42 242 58 354 42 101 59 26 306 24 17 351 333 334 358 0 10 305 292 292 18 28 50 90 242 44 30 61 35 18 342 20 14 122 121 65 33 39 74 16 357 359 259 53 22 15 332 21 12 7 337 339 9 357 359 355 346 350 12 9 8 10 7 6 11 8 4
8 7 4 1 358 358 357 357 359 359 357 346 332 290 53 49 39 68 62 39 358 356 59 23 324 260 60 248 243 6 5 329 319 326 348 19 2 338 340 20 20 336 7 111 23 56 2 41 275 112 39 40 340 238 269 40 23 32 14 44 51 1 342 8 2 67 358 4 1 14 5 24 339 338 352 359 358 348 349 6 13 8 8 7 6 8 8 10
6 6 3 358 355 352 350 350 352 351 347 339 305 318 358 33 62 67 19 44 14 80 93 154 142 262 97 63 15 332 332 293 342 321 268 356 4 3 22 27 320 269 315 56 25 27 325 53 358 92 49 34 24 26 51 34 6 356 358 8 13 331 3 339 351 360 341 357 359 358 22 9 354 345 353 357 0 359 7 5 360 3 2 8 16 6 7 10
6 6 2 358 354 350 346 348 350 348 345 359 73 100 6 294 63 61 32 345 61 2 33 360 357 62 71 327 289 282 306 317 272 341 349 3 331 327 78 226 333 55 21 45 10 7 8 100 161 40 25 16 22 20 53 67 24 21 355 356 332 338 354 345 350 352 336 330 336 4 343 333 341 342 356 354 4 3 14 1 358 352 348 5 9 10 8 9
7 5 3 360 355 351 348 347 354 357 354 72 51 124 171 243 10 26 351 28 60 60 84 346 251 281 9 12 343 311 261 313 344 2 2 19 317 310 29 343 268 62 37 56 336 37 297 59 34 32 13 3 5 18 343 333 331 270 244 310 339 325 323 345 312 354 347 310 327 320 304 287 304 336 351 353 333 353 22 355 342 353 344 352 3 11 8 14
6 4 3 2 358 353 350 355 4 10 43 90 77 63 77 176 95 83 14 62 134 29 63 107 57 29 39 307 315 350 0 340 104 17 9 298 197 315 357 346 359 50 25 305 11 174 251 61 32 21 353 333 335 328 119 160 215 286 307 314 328 324 332 348 307 328 330 324 334 322 300 282 263 269 340 325 302 338 356 359 351 336 339 352 5 8 12 9
4 2 1 360 359 358 354 2 13 1 21 71 67 85 115 175 0 16 191 81 43 24 64 75 238 60 193 224 172 306 195 256 5 8 359 3 357 12 338 50 49 56 341 214 249 51 51 52 19 358 339 227 154 124 172 169 139 208 313 317 295 358 319 272 276 345 354 304 321 332 305 298 254 240 223 314 326 359 3 9 1 327 332 343 0 6 5 7
4 360 360 359 357 357 359 358 14 15 22 22 65 83 92 31 340 326 287 122 95 314 47 25 43 23 4 182 103 203 338 41 332 1 358 338 7 56 308 37 46 44 30 6 54 48 62 40 352 342 262 179 85 48 172 176 150 30 343 326 344 346 350 347 68 355 323 307 308 322 300 291 249 229 231 212 335 55 357 9 7 338 327 336 353 4 356 6
2 360 358 357 351 349 352 12 0 30 39 48 73 54 25 356 279 271 289 70 102 28 39 55 56 104 28 5 356 351 32 27 331 346 355 3 37 268 41 21 74 45 46 20 64 73 84 12 355 296 290 220 94 48 38 35 62 108 79 330 308 325 315 270 308 321 302 275 302 320 294 265 217 233 229 191 161 150 65 9 351 326 339 340 329 354 7 5
1 1 1 354 347 340 339 342 39 46 259 329 61 22 347 333 259 8 278 113 67 84 188 150 258 67 9 265 347 216 81 151 59 260 329 13 357 258 67 161 279 36 14 302 294 83 73 28 280 287 232 150 195 51 31 340 328 62 131 330 273 280 278 289 306 321 313 339 85 356 330 6 171 225 253 174 183 205 140 137 263 308 338 322 330 359 354 352
359 5 7 360 355 352 230 50 51 196 6 52 2 353 346 330 345 316 352 75 74 328 187 24 212 35 185 2 14 31 276 66 312 5 329 21 248 21 198 56 359 58 291 122 65 69 49 83 16 10 3 60 77 86 61 306 332 283 113 186 264 266 255 288 316 315 328 333 13 15 334 315 159 221 213 212 214 212 170 211 240 263 292 307 337 347 343 351
359 6 18 14 9 346 71 76 186 217 73 67 47 334 325 304 288 310 250 354 56 360 9 336 264 50 259 2 328 246 5 18 49 353 25 28 356 333 4 23 164 112 75 279 227 68 275 218 323 147 15 6 12 34 63 354 299 338 95 266 250 243 238 284 265 298 295 290 260 40 349 296 308 136 185 198 226 233 217 216 223 231 259 306 316 331 327 346
358 5 30 41 33 31 88 118 113 48 91 24 299 319 303 237 176 268 254 65 352 340 360 344 29 327 39 325 351 49 86 299 305 73 52 323 279 281 18 36 50 10 40 234 46 11 41 357 13 9 351 9 34 314 353 269 281 349 113 307 268 252 255 190 223 290 305 314 328 131 164 263 267 118 154 187 229 236 239 227 219 224 234 237 267 282 304 321
359 360 23 80 76 74 70 85 87 94 141 118 286 233 182 210 239 98 175 108 257 54 173 295 157 26 352 302 44 40 334 2 22 345 342 217 45 265 55 26 28 359 182 264 74 119 65 31 6 329 347 10 321 317 297 198 272 45 336 256 191 169 185 215 263 287 268 289 310 45 335 330 306 123 185 194 248 250 230 218 216 216 216 221 228 237 244 265
2 2 7 67 152 58 38 61 68 103 134 143 186 181 197 217 238 252 20 341 18 324 40 301 12 321 317 338 73 14 21 7 161 304 15 43 349 42 80 336 279 9 35 24 59 41 76 85 339 304 16 334 303 310 228 228 262 309 284 263 230 204 206 191 330 289 276 240 139 94 62 6 309 284 209 180 227 228 207 194 198 207 217 219 222 222 227 219
15 15 10 354 63 38 293 60 60 150 133 183 186 163 201 39 103 94 93 232 46 302 222 41 1 331 18 30 5 359 160 350 355 358 12 353 11 41 2 198 240 226 247 134 89 44 134 153 185 50 343 304 261 271 176 244 279 292 284 291 284 205 197 235 219 264 277 351 123 124 60 267 275 359 161 218 148 224 201 191 195 205 212 213 209 218 217 220
25 36 28 39 50 242 21 60 35 100 230 196 197 193 163 238 25 57 150 345 239 10 37 331 60 349 20 258 88 355 350 333 36 21 22 22 24 29 11 34 342 350 19 27 2 92 143 82 332 304 129 351 335 275 182 219 246 258 265 289 319 329 299 289 169 323 36 336 124 137 350 247 223 252 296 188 209 210 207 193 197 201 203 204 210 209 213 220
20 65 51 38 360 44 51 9 355 353 299 247 206 349 56 89 67 267 267 334 341 347 104 212 310 353 319 262 33 349 242 23 330 70 281 264 84 89 50 46 317 352 344 7 299 1 123 40 349 204 251 23 314 353 360 333 13 357 3 331 344 349 18 344 330 229 271 184 107 193 59 252 290 276 300 235 199 202 202 190 187 192 201 204 206 209 212 212
38 46 69 30 66 63 5 9 351 346 317 250 282 9 45 62 206 68 240 272 40 350 348 341 317 208 9 55 354 333 75 155 351 351 351 21 36 39 91 51 22 2 315 29 20 1 349 323 103 333 18 341 25 39 15 296 321 20 269 333 17 4 356 331 353 340 326 310 302 98 254 278 332 54 137 43 351 356 344 337 18 331 223 203 205 205 210 216
89 61 102 95 104 70 21 5 341 330 293 280 40 77 92 194 229 199 236 265 279 268 211 265 309 293 70 111 354 264 311 335 50 328 19 11 34 13 7 1 5 353 230 269 104 245 158 262 62 346 298 307 41 48 276 297 213 181 310 254 308 41 326 296 355 291 324 336 306 164 279 313 276 84 140 109 87 176 188 224 224 236 219 205 210 209 213 218
272 29 355 46 4 7 2 344 308 271 333 45 68 39 54 168 171 151 85 71 97 188 114 6 357 128 14 204 151 63 178 295 17 348 65 33 208 52 153 335 354 355 353 29 330 346 301 259 100 128 57 68 30 280 100 290 339 21 248 31 14 317 271 331 145 119 254 212 236 317 290 239 249 219 262 220 211 210 161 208 212 221 212 207 224 218 216 218
32 303 88 347 9 355 335 333 320 339 53 85 89 78 125 290 283 185 25 246 3 324 162 250 8 25 347 345 319 350 47 242 295 333 39 196 157 176 115 137 245 350 8 328 119 161 341 299 64 233 166 115 292 268 77 18 306 280 314 86 115 77 7 340 325 284 274 300 293 70 305 309 324 68 126 156 209 210 202 205 212 213 204 218 224 222 220 218
64 54 132 13 335 324 304 309 308 18 74 80 57 104 313 96 331 291 349 252 217 257 304 77 109 2 235 265 17 356 340 278 18 359 36 350 79 132 159 141 143 21 311 323 300 87 315 292 148 353 330 72 139 226 169 110 303 350 46 135 279 21 271 123 246 335 334 306 308 287 302 263 252 304 170 140 183 212 212 201 205 221 219 226 226 226 225 223
70 174 16 21 343 327 320 289 29 23 69 62 141 125 223 333 36 241 295 304 307 277 95 10 22 331 145 174 293 176 333 21 351 25 324 80 316 183 168 220 114 154 96 271 271 109 236 298 286 147 243 7 312 257 301 125 84 40 157 154 31 252 287 318 24 278 257 288 325 291 14 304 184 316 263 306 306 142 193 194 219 224 224 222 225 225 222 218
11 37 352 17 325 332 317 266 73 46 52 84 180 85 41 191 194 291 237 268 46 312 87 132 277 126 251 292 345 328 44 349 323 354 265 56 280 163 190 162 204 134 110 281 38 326 161 27 292 126 227 237 241 191 305 354 305 188 222 186 144 87 6 257 203 244 289 297 295 314 314 295 80 157 243 262 47 37 224 225 226 238 237 237 241 238 234 229
325 111 251 0 332 328 278 32 45 27 79 88 41 122 358 170 195 200 203 241 264 321 321 278 151 134 168 153 210 234 282 233 248 236 239 209 215 328 152 157 187 141 120 136 184 212 217 198 269 313 322 282 340 64 357 358 352 290 294 315 347 285 288 322 290 97 9 245 265 287 285 289 307 88 284 277 61 319 323 286 285 277 270 267 264 258 254 257
95 54 301 4 328 312 78 56 35 315 78 95 76 11 69 147 64 82 89 141 283 67 13 109 41 89 109 50 349 184 264 258 197 283 207 276 160 241 94 47 137 98 200 326 18 116 314 340 275 284 260 297 60 77 132 316 303 263 288 271 37 108 263 230 301 148 206 196 48 305 300 277 53 46 344 312 328 303 297 287 281 281 275 268 260 256 255 250
40 356 146 1 2 8 65 80 142 56 60 18 293 36 314 5 72 26 299 318 284 334 59 45 80 57 35 350 220 118 265 269 190 318 131 237 267 222 70 134 134 121 250 109 172 176 192 251 282 259 273 109 146 147 161 118 198 195 196 195 191 214 200 260 270 2 277 141 222 169 229 252 128 133 160 287 297 296 271 255 274 289 290 278 271 269 262 257
138 325 349 151 353 230 86 116 107 57 118 331 79 99 359 13 122 65 343 311 335 348 33 102 132 8 101 12 89 110 13 303 164 269 221 130 277 73 49 149 177 171 225 104 271 150 267 143 231 296 299 212 142 149 173 57 278 250 237 181 212 95 62 85 84 124 271 208 201 192 260 261 116 151 148 200 233 249 245 227 231 271 291 293 293 285 271 265
102 263 275 307 5 15 107 190 134 131 147 128 126 107 145 110 22 4 309 146 267 53 212 89 20 161 81 50 86 122 354 85 298 107 338 241 278 68 36 136 134 254 113 349 25 133 238 228 222 320 335 333 338 329 329 303 222 180 222 183 191 198 156 163 244 166 243 182 180 224 248 261 221 144 160 177 199 280 292 230 208 224 267 290 297 294 290 279
21 132 325 350 12 42 75 35 82 127 136 162 116 152 145 118 155 152 208 99 319 126 22 114 116 126 108 165 60 6 332 332 199 294 332 247 251 204 105 126 165 135 287 173 129 240 217 16 241 229 251 266 268 292 97 345 293 259 238 188 200 211 211 229 261 238 233 201 217 229 235 278 286 281 282 284 283 283 291 300 298 292 283 268 270 279 282 282
46 77 348 333 339 53 80 50 92 124 150 200 128 162 150 143 131 118 352 196 172 205 108 255 168 180 175 199 186 195 228 284 10 325 234 245 237 262 110 158 117 209 241 130 23 83 95 267 223 224 244 249 264 279 315 42 279 274 269 263 220 197 200 209 209 236 155 229 263 253 238 248 262 277 287 292 296 295 289 298 302 299 300 302 297 293 288 283
100 131 89 166 199 85 96 41 58 86 68 116 75 55 136 138 177 149 200 336 87 251 213 195 187 245 179 182 156 214 201 231 34 236 281 228 298 207 221 152 167 148 200 134 318 240 249 254 344 172 247 251 274 280 286 285 262 265 263 261 251 223 199 207 229 231 218 219 249 265 99 266 274 281 284 287 287 297 303 300 291 289 289 286 285 284 284 281
49 117 113 316 175 342 15 45 85 101 90 83 107 143 156 179 184 172 153 127 6 204 222 276 230 207 200 173 188 248 159 314 280 219 223 226 224 290 254 145 144 118 166 183 199 64 242 247 241 284 283 278 273 274 276 266 273 271 259 253 242 234 226 221 235 233 226 239 251 266 277 277 278 278 280 279 287 297 298 300 293 281 275 281 284 281 279 282
193 154 148 11 69 94 8 20 33 42 80 324 114 220 171 179 169 136 298 158 149 253 119 244 247 166 196 190 206 219 213 207 244 278 188 188 250 186 271 269 107 131 166 188 196 262 183 291 96 244 288 278 273 261 276 266 282 280 270 249 239 228 234 231 237 246 246 257 257 260 266 273 272 264 264 275 289 294 289 277 278 286 285 286 290 286 283 282
55 346 133 130 88 27 76 6 183 42 116 275 164 164 170 200 213 177 177 212 195 168 182 206 119 120 178 211 221 245 252 231 229 254 190 175 267 151 199 60 134 133 170 170 220 238 202 267 82 58 307 284 91 328 313 298 275 270 277 275 233 220 225 230 219 224 211 229 243 255 261 256 261 268 256 263 270 267 266 278 288 291 292 286 283 287 293 296
91 109 283 97 103 253 206 91 315 188 217 202 170 168 201 203 179 159 158 159 197 204 194 181 151 139 168 203 229 229 247 239 250 259 220 237 297 310 240 31 178 152 160 186 186 195 202 226 215 20 297 274 65 4 322 307 292 276 250 262 195 190 204 222 231 220 208 213 227 218 235 238 250 317 313 292 262 252 253 259 277 285 282 276 264 265 277 282